Waterville, ME

7:40 PM EST on November 19, 2017 (GMT -0500)
Waterville Lafleur

Weather History for KWVL - August, 2013

Change the Weather History Date:

Friday, August 9, 2013

  Actual Average Record
Temperature  
Mean Temperature 68 °F -  
Max Temperature 71 °F 83 °F 93 °F (2001)
Min Temperature 64 °F 59 °F 47 °F (1989)
Cooling Degree Days 2    
Growing Degree Days 18 (Base 50)    
Moisture  
Dew Point 66 °F    
Average Humidity 96    
Maximum Humidity 100    
Minimum Humidity 88    
Precipitation  
Precipitation 3.67 in - - ()
Sea Level Pressure  
Sea Level Pressure 29.86 in    
Wind  
Wind Speed 2 mph (South)    
Max Wind Speed 10 mph    
Max Gust Speed 17 mph    
Visibility 6 miles    
Events Thunderstorm    
Averages and records for this station are not official NWS values.
T = Trace of Precipitation, MM = Missing Value Source: NWS Daily Summary

Daily Weather History Graph

Daily Weather History Graph

Search for Another Location

Airport or City:

Trip Planner

Search our weather history database for the weather conditions in past years. The results will help you decide how hot, cold, wet, or windy it might be!

Date:

Astronomy

Aug. 09, 2013 Rise Set
Actual Time 5:34 AM EDT 7:52 PM EDT
Civil Twilight 5:02 AM EDT 8:25 PM EDT
Nautical Twilight 4:22 AM EDT 9:04 PM EDT
Astronomical Twilight 3:37 AM EDT 9:49 PM EDT
Moon 8:26 AM EDT (8/9) 8:50 PM EDT (8/9)
Length of Visible Light 15h 22m
Length of Day
14h 18m
Waxing Crescent, 7% of the Moon is Illuminated
Aug 9
Waxing Crescent
Aug 14
First Quarter
Aug 20
Full
Aug 28
Last Quarter
Sep 5
New

Hourly Weather History & Observations

Time (EDT) Temp. Dew Point Humidity Pressure Visibility Wind Dir Wind Speed Gust Speed Precip Events Conditions
12:15 AM 66.2 °F 64.4 °F 94% 30.00 in 6.0 mi Calm Calm - N/A   Overcast
12:35 AM 66.2 °F 64.4 °F 94% 29.99 in 2.5 mi Calm Calm - N/A   Overcast
12:55 AM 66.2 °F 64.4 °F 94% 29.99 in 4.0 mi Calm Calm - N/A   Overcast
1:15 AM 66.2 °F 64.4 °F 94% 29.99 in 5.0 mi Calm Calm - N/A   Overcast
1:35 AM 66.2 °F 64.4 °F 94% 29.98 in 2.5 mi Calm Calm - N/A   Overcast
1:55 AM 66.2 °F 64.4 °F 94% 29.97 in 2.5 mi Calm Calm - N/A   Overcast
2:15 AM 66.2 °F 64.4 °F 94% 29.97 in 3.0 mi Calm Calm - N/A   Overcast
2:35 AM 66.2 °F 64.4 °F 94% 29.97 in 3.0 mi Calm Calm - N/A   Overcast
2:55 AM 66.2 °F 64.4 °F 94% 29.96 in 2.5 mi Calm Calm - N/A   Overcast
3:15 AM 64.4 °F 62.6 °F 94% 29.95 in 2.5 mi Calm Calm - N/A   Overcast
3:35 AM 66.2 °F 64.4 °F 94% 29.95 in 1.0 mi Calm Calm - N/A   Overcast
3:55 AM 66.2 °F 64.4 °F 94% 29.94 in 0.8 mi Calm Calm - N/A   Overcast
4:15 AM 66.2 °F 64.4 °F 94% 29.94 in 0.8 mi Calm Calm - N/A   Overcast
4:35 AM 66.2 °F 64.4 °F 94% 29.95 in 1.0 mi Calm Calm - N/A   Overcast
4:55 AM 66.2 °F 64.4 °F 94% 29.95 in 0.8 mi Calm Calm - N/A   Overcast
5:15 AM 66.2 °F 66.2 °F 100% 29.94 in 0.5 mi Calm Calm - N/A   Overcast
5:35 AM 66.2 °F 66.2 °F 100% 29.93 in 0.5 mi Calm Calm - N/A Thunderstorm Overcast
5:55 AM 66.2 °F 66.2 °F 100% 29.94 in 0.8 mi Calm Calm - 0.02 in Thunderstorm Thunderstorm
6:15 AM 66.2 °F 66.2 °F 100% 29.93 in 0.2 mi Calm Calm - N/A Thunderstorm Overcast
6:35 AM 66.2 °F 66.2 °F 100% 29.92 in 0.2 mi South 3.5 mph - 0.01 in Thunderstorm Overcast
6:55 AM 66.2 °F 66.2 °F 100% 29.92 in 0.2 mi South 3.5 mph - 0.01 in Thunderstorm Thunderstorm
7:15 AM 66.2 °F 64.4 °F 94% 29.91 in 1.0 mi Calm Calm - 0.03 in Thunderstorm Thunderstorm
7:35 AM 66.2 °F 66.2 °F 100% 29.92 in 2.0 mi South 4.6 mph - 0.07 in Thunderstorm Thunderstorm
7:55 AM 68.0 °F 66.2 °F 94% 29.94 in 1.2 mi SW 5.8 mph - 0.99 in Thunderstorm Thunderstorm
8:15 AM 68.0 °F 66.2 °F 94% 29.91 in 9.0 mi South 3.5 mph - 0.16 in Thunderstorm Thunderstorm
8:35 AM 68.0 °F 66.2 °F 94% 29.93 in 10.0 mi South 4.6 mph - 0.19 in Thunderstorm Overcast
8:55 AM 68.0 °F 66.2 °F 94% 29.92 in 3.0 mi South 3.5 mph - 0.37 in   Mostly Cloudy
9:15 AM 68.0 °F 68.0 °F 100% 29.92 in 5.0 mi South 3.5 mph - 0.20 in   Overcast
9:55 AM 68.0 °F 68.0 °F 100% 29.91 in 4.0 mi South 4.6 mph - 0.80 in   Mostly Cloudy
10:15 AM 68.0 °F 68.0 °F 100% 29.91 in 9.0 mi SSE 5.8 mph - 0.08 in   Overcast
10:35 AM 68.0 °F 66.2 °F 94% 29.91 in 9.0 mi SSW 10.4 mph 16.1 mph 0.12 in   Overcast
10:55 AM 68.0 °F 66.2 °F 94% 29.90 in 8.0 mi SSW 6.9 mph 17.3 mph 0.29 in   Overcast
11:15 AM 68.0 °F 66.2 °F 94% 29.91 in 5.0 mi South 8.1 mph - 0.11 in   Mostly Cloudy
11:35 AM 68.0 °F 68.0 °F 100% 29.91 in 5.0 mi South 4.6 mph - 0.28 in   Mostly Cloudy
11:55 AM 69.8 °F 68.0 °F 94% 29.91 in 6.0 mi South 3.5 mph - 0.32 in   Mostly Cloudy
12:15 PM 69.8 °F 69.8 °F 100% 29.90 in 7.0 mi South 4.6 mph - 0.01 in   Overcast
12:35 PM 69.8 °F 69.8 °F 100% 29.90 in 6.0 mi South 5.8 mph - 0.02 in   Overcast
12:55 PM 69.8 °F 69.8 °F 100% 29.89 in 6.0 mi South 4.6 mph - 0.03 in   Overcast
1:15 PM 71.6 °F 69.8 °F 94% 29.88 in 6.0 mi SSW 4.6 mph - 0.01 in   Overcast
1:35 PM 71.6 °F 69.8 °F 94% 29.88 in 8.0 mi South 8.1 mph - 0.02 in   Overcast
1:55 PM 71.6 °F 69.8 °F 94% 29.87 in 9.0 mi South 6.9 mph - 0.04 in   Overcast
2:15 PM 69.8 °F 69.8 °F 100% 29.86 in 9.0 mi South 6.9 mph - 0.01 in   Overcast
2:35 PM 69.8 °F 69.8 °F 100% 29.86 in 10.0 mi South 4.6 mph - 0.02 in   Overcast
2:55 PM 69.8 °F 69.8 °F 100% 29.85 in 9.0 mi South 4.6 mph - 0.03 in   Overcast
3:15 PM 69.8 °F 69.8 °F 100% 29.85 in 6.0 mi South 5.8 mph - 0.03 in   Overcast
3:35 PM 69.8 °F 66.2 °F 88% 29.85 in 6.0 mi South 6.9 mph 17.3 mph 0.16 in   Overcast
3:55 PM 66.2 °F 66.2 °F 100% 29.84 in 6.0 mi South 6.9 mph - 0.27 in   Overcast
4:15 PM 66.2 °F 66.2 °F 100% 29.83 in 5.0 mi South 4.6 mph - 0.14 in   Overcast
4:35 PM 66.2 °F 66.2 °F 100% 29.81 in 5.0 mi SSE 3.5 mph - 0.33 in   Overcast
4:55 PM 66.2 °F 64.4 °F 94% 29.80 in 5.0 mi SSE 3.5 mph - 0.39 in   Overcast
5:15 PM 66.2 °F 64.4 °F 94% 29.79 in 8.0 mi South 5.8 mph - 0.04 in   Overcast
5:35 PM 66.2 °F 64.4 °F 94% 29.78 in 10.0 mi South 8.1 mph - 0.08 in   Overcast
5:55 PM 66.2 °F 64.4 °F 94% 29.78 in 8.0 mi SSW 9.2 mph 16.1 mph 0.10 in   Overcast
6:15 PM 66.2 °F 64.4 °F 94% 29.77 in 8.0 mi SSW 6.9 mph - 0.01 in   Overcast
6:35 PM 66.2 °F 64.4 °F 94% 29.76 in 7.0 mi South 8.1 mph - 0.01 in   Overcast
6:55 PM 66.2 °F 64.4 °F 94% 29.75 in 10.0 mi South 4.6 mph - 0.01 in   Overcast
7:15 PM 66.2 °F 64.4 °F 94% 29.74 in 10.0 mi South 6.9 mph - N/A   Overcast
7:35 PM 66.2 °F 64.4 °F 94% 29.73 in 10.0 mi SSW 4.6 mph - N/A   Overcast
7:55 PM 66.2 °F 64.4 °F 94% 29.72 in 10.0 mi South 4.6 mph - N/A   Overcast
8:15 PM 66.2 °F 64.4 °F 94% 29.72 in 10.0 mi Calm Calm - N/A   Overcast
8:35 PM 66.2 °F 64.4 °F 94% 29.72 in 10.0 mi Calm Calm - N/A   Overcast
8:55 PM 66.2 °F 64.4 °F 94% 29.73 in 5.0 mi WSW 3.5 mph - N/A   Overcast
9:15 PM 66.2 °F 66.2 °F 100% 29.73 in 3.0 mi West 3.5 mph - N/A   Overcast
9:35 PM 66.2 °F 66.2 °F 100% 29.73 in 1.8 mi West 4.6 mph - N/A   Overcast
9:55 PM 66.2 °F 64.4 °F 94% 29.72 in 8.0 mi Calm Calm - N/A   Overcast
10:15 PM 66.2 °F 64.4 °F 94% 29.70 in 10.0 mi Calm Calm - N/A   Overcast
10:35 PM 66.2 °F 64.4 °F 94% 29.70 in 3.0 mi Calm Calm - N/A   Overcast
10:55 PM 66.2 °F 64.4 °F 94% 29.70 in 10.0 mi Calm Calm - N/A   Overcast
11:15 PM 66.2 °F 64.4 °F 94% 29.69 in 10.0 mi Calm Calm - N/A   Overcast
11:35 PM 66.2 °F 64.4 °F 94% 29.69 in 10.0 mi Calm Calm - N/A   Overcast
11:55 PM 66.2 °F 64.4 °F 94% 29.70 in 10.0 mi Calm Calm - N/A   Overcast